Location: Unspecified
(0.0000°N, 0.0000°E)
Time: 06:39:21
(UTC+00:00)

Envisat - Pass Details

Date: 17 January 2019
Orbit: 764 x 766 km, 98.1° (Epoch: 15 June)

Event Time Altitude Azimuth Distance (km) Brightness Sun altitude
Rises 19:39:15 0° 182° (S) 3,231 6.6 -20.8°
Reaches altitude 10° 19:41:40 10° 189° (S) 2,303 5.9 -21.3°
Maximum altitude 19:46:24 40° 258° (WSW) 1,112 4.3 -22.4°
Drops below altitude 10° 19:51:08 10° 327° (NNW) 2,294 5.6 -23.5°
Sets 19:53:33 0° 334° (NNW) 3,217 6.3 -24.1°
